STARLINK-6367, 57376

Orbit data source: Space-Track

STARLINK-6367, 57376 is a payload satellite owned by SpaceX/Seattle (US) in LEO that was launched on Sun, 16 Jul 2023 UTC via an FALCON 9 launch vehicle from the Air Force Eastern Test Range (AFETR). Payload-class satellites include a variety of spacecraft equipped with specific instruments for various scientific and technological missions. These include communications satellites like Starlink; space stations such as the ISS; scientific satellites like the Hubble; Earth observation satellites from companies like Planet Labs, Umbra, and HawkEye 360; GPS; miniature CubeSats for education and research; and military/defense satellites.

Loading next visibility...
Identifier
57376, 2023-099BA
Orbit
LEO
Country
Flag of USUS
Related business
Manufacturer
SpaceX/Seattle
Mission
Operational Commercial Communications
Bus & Motor
STARLINK, Unknown motor
Mass
305 kg wet, ~290 kg dry
Launch date (UTC)
2023-07-16 (3 years ago)
Launch vehicle
FALCON 9
Launch site
Air Force Eastern Test Range (AFETR)
Object type
Payload
Rocket body
Debris
Shape & HBR
Box + 1 Pan, 10.1 m
Radar Cross Section
11.087 m², Large (>1 m²)

Expand to show TLE details & history
Last TLE update: 2 days ago

TLE from 2 days ago
0 STARLINK-6367
1 57376U 23099BA  26171.30206163  .00013189  00000-0  48758-3 0  9996
2 57376  43.0037  18.6774 0002458 277.5020  82.5552 15.27604167161938
Epoch: 2026-06-20T07:14Z
TLE epoch observation values (Epoch: 2026-06-20T07:14:58.124Z)
Latitude
-0.00006°
Longitude
1.41651°
Altitude
482.534 km
Speed
7.626 km/s
True Right ascension
01h 14m 42s
True Declination
0° 00' 00"
Sunlit
Object was in daylight at epoch
Visualization orbit readout
Latitude
Unknown
Longitude
Unknown
Altitude
Unknown
Speed
Unknown
Apparent Right ascension
Unknown
Apparent Declination
Unknown
Sunlit
N/A
Visualization observer readout
Local Sidereal Time
21:28:58
Azimuth
Unknown
Elevation
Unknown
Doppler factor
Unknown
Orbital elements
Apogee altitude
486.608 km
Perigee altitude
483.234 km
Semi-major axis
6,863.058 km
Eccentricity
0.00025
Inclination
43.0037°
RAAN
18.6774°
Arg. of periapsis
277.502°
True anomaly
82.58313°
Mean anomaly
82.5552°
Eccentric anomaly
82.56917°
Mean motion
3.81739 °/min
Orbital period
94.31 mins
BSTAR
0.00048758
Loading maneuver chart data...
Computing Atmospheric mass density...
Loading historical data...
Loading historical data...
Loading historical data...
Loading historical data...
Loading historical data...
Loading historical data...
Loading historical data...

Documentation

Showing up to 5 results
|